CZ-4C R/B, 44623

Orbit data source: Space-Track

CZ-4C R/B, 44623 is space debris in SSO originally from a launch on Fri, 04 Oct 2019 UTC launched from the Taiyaun Space Center, China (TSC). Debris objects in space refer to the collection of defunct objects orbiting the Earth. Examples of debris include non-operational satellites, rocket bodies, and fragments generated from explosions, collisions, or faulty payload assembly.

Loading next visibility...
Identifier
44623, 2019-066B
Orbit
SSO
Country
Flag of CNCN / PRC
Related business
Manufacturer
SAST
Mission
Spacecraft
Bus & Motor
CZ-4 STAGE 3, Unknown motor
Mass
~1,000 kg wet, ~1,000 kg dry
Launch date (UTC)
2019-10-04 (6 years ago)
Launch vehicle
Unknown
Launch site
Taiyaun Space Center, China (TSC)
Object type
Payload
Rocket body
Debris
Shape & HBR
Cyl, 1.4 m
Radar Cross Section
7.676 m², Large (>1 m²)

Expand to show TLE details & history
Last TLE update: 14 hours ago

TLE from 14 hours ago
0 CZ-4C R/B
1 44623U 19066B   25309.70249981  .00264186  28390-4  78608-3 0  9995
2 44623  97.7786  41.6913 0023077 180.4917 179.6337 15.91970976339496
Epoch: 2025-11-05T16:51Z
TLE epoch observation values (Epoch: 2025-11-05T16:51:35.983Z)
Latitude
-0.00005°
Longitude
103.62°
Altitude
315.351 km
Speed
7.71 km/s
True Right ascension
02h 46m 45s
True Declination
0° 00' 00"
Sunlit
Object was in full shadow at epoch
Visualization orbit readout
Latitude
Unknown
Longitude
Unknown
Altitude
Unknown
Speed
Unknown
Apparent Right ascension
Unknown
Apparent Declination
Unknown
Sunlit
N/A
Visualization observer readout
Local Sidereal Time
03:16:55
Azimuth
Unknown
Elevation
Unknown
Doppler factor
Unknown
Orbital elements
Apogee altitude
309.052 km
Perigee altitude
278.259 km
Semi-major axis
6,671.792 km
Eccentricity
0.00231
Inclination
97.7786°
RAAN
41.6913°
Arg. of periapsis
180.4917°
True anomaly
179.63539°
Mean anomaly
179.6337°
Eccentric anomaly
179.63454°
Mean motion
3.98272 °/min
Orbital period
90.39 mins
BSTAR
0.00078608
Loading maneuver chart data...
Computing Atmospheric mass density...
Loading historical data...
Loading historical data...
Loading historical data...
Loading historical data...
Loading historical data...
Loading historical data...
Loading historical data...
Other satellites on launch #66 in the year 2019 (2019-10-04 UTC)

Documentation

Showing up to 5 results
|